Tracking 25723 objects as of 27-Jun-2022
HD Live streaming from Space Station
objects crossing your sky now

DELTA 1 DEB

Track DELTA 1 DEB now!
10-day predictions


NORAD ID: 13561
Int'l Code: 1978-026EY
Perigee: 728.1 km
Apogee: 963.3 km
Inclination: 99.0 °
Period: 101.7 minutes
Semi major axis: 7216 km
RCS: 0.055 m2 (small)
Launch date: March 5, 1978
Source: United States (US)
Launch site: AIR FORCE WESTERN TEST RANGE (AFWTR)

Note: This is SATELLITE DEBRIS
aabbcc
Your satellite tracking list
Your tracking list is empty




NASA's NSSDC Master Catalog

Two Line Element Set (TLE):
1 13561U 78026EY  22177.45510553  .00002384  00000-0  10797-2 0  9999
2 13561  99.0440 346.0998 0163020 161.1612 255.3545 14.16103984 89747
Source of the keplerian elements: AFSPC